Time,TemperatureF,DewpointF,PressureIn,WindDirection,WindDirectionDegrees,WindSpeedMPH,WindSpeedGustMPH,Humidity,HourlyPrecipIn,Conditions,Clouds,dailyrainin,SoftwareType,DateUTC
2013-01-21 00:14:00,33.1,24.0,30.18,SW,226,0.0,-999.0,69,-99.99,,,0.00,weatherlink.com 1.10,2013-01-21 05:14:00,
2013-01-21 00:29:00,32.6,24.0,30.18,SW,226,0.0,-999.0,71,-99.99,,,0.00,weatherlink.com 1.10,2013-01-21 05:29:00,
2013-01-21 00:44:00,32.0,24.0,30.18,SW,226,0.0,-999.0,72,-99.99,,,0.00,weatherlink.com 1.10,2013-01-21 05:44:00,
2013-01-21 00:59:00,31.8,24.0,30.18,SW,226,0.0,-999.0,73,-99.99,,,0.00,weatherlink.com 1.10,2013-01-21 05:59:00,
2013-01-21 01:14:00,31.5,24.0,30.17,SW,226,0.0,-999.0,74,-99.99,,,0.00,weatherlink.com 1.10,2013-01-21 06:14:00,
2013-01-21 01:30:00,31.3,24.0,30.17,SW,226,0.0,-999.0,75,-99.99,,,0.00,weatherlink.com 1.10,2013-01-21 06:30:00,
2013-01-21 01:45:00,30.7,24.0,30.17,SW,226,0.0,-999.0,76,-99.99,,,0.00,weatherlink.com 1.10,2013-01-21 06:45:00,
2013-01-21 02:00:00,30.4,24.0,30.18,SW,226,0.0,-999.0,77,-99.99,,,0.00,weatherlink.com 1.10,2013-01-21 07:00:00,
2013-01-21 02:15:00,30.2,24.0,30.17,SW,226,0.0,-999.0,78,-99.99,,,0.00,weatherlink.com 1.10,2013-01-21 07:15:00,
2013-01-21 02:30:00,29.9,24.0,30.18,SW,226,0.0,-999.0,79,-99.99,,,0.00,weatherlink.com 1.10,2013-01-21 07:30:00,
2013-01-21 02:45:00,30.0,25.0,30.18,SW,226,0.0,-999.0,80,-99.99,,,0.00,weatherlink.com 1.10,2013-01-21 07:45:00,
2013-01-21 03:00:00,29.9,24.0,30.17,SW,226,0.0,-999.0,80,-99.99,,,0.00,weatherlink.com 1.10,2013-01-21 08:00:00,
2013-01-21 03:15:00,29.7,24.0,30.17,West,259,0.0,-999.0,80,-99.99,,,0.00,weatherlink.com 1.10,2013-01-21 08:15:00,
2013-01-21 03:30:00,29.6,24.0,30.17,West,259,0.0,-999.0,80,-99.99,,,0.00,weatherlink.com 1.10,2013-01-21 08:30:00,
2013-01-21 03:45:00,29.3,24.0,30.17,West,259,0.0,-999.0,80,-99.99,,,0.00,weatherlink.com 1.10,2013-01-21 08:45:00,
2013-01-21 04:00:00,29.1,24.0,30.16,West,259,0.0,-999.0,81,-99.99,,,0.00,weatherlink.com 1.10,2013-01-21 09:00:00,
2013-01-21 04:15:00,28.9,24.0,30.16,West,259,0.0,-999.0,81,-99.99,,,0.00,weatherlink.com 1.10,2013-01-21 09:15:00,
2013-01-21 04:31:00,28.7,24.0,30.16,West,259,0.0,-999.0,81,-99.99,,,0.00,weatherlink.com 1.10,2013-01-21 09:31:00,
2013-01-21 04:46:00,28.7,24.0,30.16,West,259,0.0,-999.0,81,-99.99,,,0.00,weatherlink.com 1.10,2013-01-21 09:46:00,
2013-01-21 05:01:00,28.6,24.0,30.16,West,259,0.0,-999.0,82,-99.99,,,0.00,weatherlink.com 1.10,2013-01-21 10:01:00,
2013-01-21 05:16:00,28.6,24.0,30.15,West,259,0.0,-999.0,82,-99.99,,,0.00,weatherlink.com 1.10,2013-01-21 10:16:00,
2013-01-21 05:31:00,28.5,24.0,30.16,West,259,0.0,-999.0,82,-99.99,,,0.00,weatherlink.com 1.10,2013-01-21 10:31:00,
2013-01-21 05:46:00,28.4,24.0,30.16,West,259,0.0,-999.0,82,-99.99,,,0.00,weatherlink.com 1.10,2013-01-21 10:46:00,
2013-01-21 06:01:00,28.2,23.0,30.15,West,259,0.0,-999.0,82,-99.99,,,0.00,weatherlink.com 1.10,2013-01-21 11:01:00,
2013-01-21 06:31:00,28.1,23.0,30.16,West,259,0.0,-999.0,82,-99.99,,,0.00,weatherlink.com 1.10,2013-01-21 11:31:00,
2013-01-21 07:01:00,27.6,23.0,30.16,West,259,0.0,-999.0,82,-99.99,,,0.00,weatherlink.com 1.10,2013-01-21 12:01:00,
2013-01-21 07:17:00,27.6,23.0,30.16,West,259,0.0,-999.0,82,-99.99,,,0.00,weatherlink.com 1.10,2013-01-21 12:17:00,
2013-01-21 07:32:00,27.5,23.0,30.16,West,259,0.0,-999.0,82,-99.99,,,0.00,weatherlink.com 1.10,2013-01-21 12:32:00,
2013-01-21 07:47:00,27.5,23.0,30.16,West,259,0.0,-999.0,82,-99.99,,,0.00,weatherlink.com 1.10,2013-01-21 12:47:00,
2013-01-21 08:02:00,27.4,23.0,30.16,West,259,0.0,-999.0,82,-99.99,,,0.00,weatherlink.com 1.10,2013-01-21 13:02:00,
2013-01-21 08:17:00,27.5,23.0,30.16,West,259,0.0,-999.0,82,-99.99,,,0.00,weatherlink.com 1.10,2013-01-21 13:17:00,
2013-01-21 08:32:00,27.7,23.0,30.17,West,259,0.0,-999.0,82,-99.99,,,0.00,weatherlink.com 1.10,2013-01-21 13:32:00,
2013-01-21 08:47:00,28.2,24.0,30.17,West,259,0.0,-999.0,83,-99.99,,,0.00,weatherlink.com 1.10,2013-01-21 13:47:00,
2013-01-21 09:02:00,29.2,25.0,30.17,West,259,0.0,-999.0,83,-99.99,,,0.00,weatherlink.com 1.10,2013-01-21 14:02:00,
2013-01-21 09:17:00,30.2,26.0,30.17,West,259,0.0,-999.0,84,-99.99,,,0.00,weatherlink.com 1.10,2013-01-21 14:17:00,
2013-01-21 09:32:00,31.3,27.0,30.17,West,259,0.0,-999.0,84,-99.99,,,0.00,weatherlink.com 1.10,2013-01-21 14:32:00,
2013-01-21 09:47:00,32.6,28.0,30.18,West,259,0.0,-999.0,84,-99.99,,,0.00,weatherlink.com 1.10,2013-01-21 14:47:00,
2013-01-21 10:02:00,33.7,29.0,30.18,West,259,0.0,-999.0,84,-99.99,,,0.00,weatherlink.com 1.10,2013-01-21 15:02:00,
2013-01-21 10:18:00,35.1,31.0,30.18,WNW,299,0.0,-999.0,85,-99.99,,,0.00,weatherlink.com 1.10,2013-01-21 15:18:00,
2013-01-21 10:33:00,36.3,32.0,30.18,NW,305,1.0,-999.0,84,-99.99,,,0.00,weatherlink.com 1.10,2013-01-21 15:33:00,
2013-01-21 10:48:00,38.7,32.0,30.17,NNW,327,1.0,-999.0,77,-99.99,,,0.00,weatherlink.com 1.10,2013-01-21 15:48:00,
2013-01-21 11:03:00,41.4,32.0,30.16,NW,311,1.0,-999.0,68,-99.99,,,0.00,weatherlink.com 1.10,2013-01-21 16:03:00,
2013-01-21 11:18:00,43.3,31.0,30.15,NW,319,0.0,-999.0,62,-99.99,,,0.00,weatherlink.com 1.10,2013-01-21 16:18:00,
2013-01-21 11:33:00,44.7,31.0,30.15,NNW,336,2.0,-999.0,58,-99.99,,,0.00,weatherlink.com 1.10,2013-01-21 16:33:00,
2013-01-21 11:48:00,46.3,30.0,30.14,NW,309,2.0,-999.0,54,-99.99,,,0.00,weatherlink.com 1.10,2013-01-21 16:48:00,
2013-01-21 12:03:00,47.7,30.0,30.13,NW,317,0.0,-999.0,50,-99.99,,,0.00,weatherlink.com 1.10,2013-01-21 17:03:00,
2013-01-21 12:19:00,50.5,26.0,30.10,WNW,299,1.0,-999.0,38,-99.99,,,0.00,weatherlink.com 1.10,2013-01-21 17:19:00,
2013-01-21 12:34:00,51.1,27.0,30.09,West,264,0.0,-999.0,40,-99.99,,,0.00,weatherlink.com 1.10,2013-01-21 17:34:00,
2013-01-21 12:49:00,51.9,27.0,30.08,NW,307,1.0,-999.0,38,-99.99,,,0.00,weatherlink.com 1.10,2013-01-21 17:49:00,
2013-01-21 13:04:00,53.0,27.0,30.06,WSW,237,1.0,-999.0,36,-99.99,,,0.00,weatherlink.com 1.10,2013-01-21 18:04:00,
2013-01-21 13:19:00,53.2,24.0,30.05,WSW,240,2.0,-999.0,32,-99.99,,,0.00,weatherlink.com 1.10,2013-01-21 18:19:00,
2013-01-21 13:34:00,53.8,25.0,30.04,West,271,1.0,-999.0,33,-99.99,,,0.00,weatherlink.com 1.10,2013-01-21 18:34:00,
2013-01-21 13:49:00,53.9,24.0,30.04,WNW,301,4.0,-999.0,31,-99.99,,,0.00,weatherlink.com 1.10,2013-01-21 18:49:00,
2013-01-21 14:04:00,54.3,26.0,30.03,SW,229,6.0,-999.0,34,-99.99,,,0.00,weatherlink.com 1.10,2013-01-21 19:04:00,
2013-01-21 14:20:00,54.7,26.0,30.03,North,360,3.0,-999.0,33,-99.99,,,0.00,weatherlink.com 1.10,2013-01-21 19:20:00,
2013-01-21 14:35:00,54.6,24.0,30.03,West,273,4.0,-999.0,31,-99.99,,,0.00,weatherlink.com 1.10,2013-01-21 19:35:00,
2013-01-21 14:50:00,54.7,24.0,30.03,NNW,337,4.0,-999.0,31,-99.99,,,0.00,weatherlink.com 1.10,2013-01-21 19:50:00,
2013-01-21 15:05:00,54.8,25.0,30.03,NNW,327,3.0,-999.0,32,-99.99,,,0.00,weatherlink.com 1.10,2013-01-21 20:05:00,
2013-01-21 15:20:00,54.9,25.0,30.03,West,262,5.0,-999.0,31,-99.99,,,0.00,weatherlink.com 1.10,2013-01-21 20:20:00,
2013-01-21 15:35:00,54.6,24.0,30.01,WNW,290,1.0,-999.0,30,-99.99,,,0.00,weatherlink.com 1.10,2013-01-21 20:35:00,
2013-01-21 15:50:00,54.4,25.0,30.01,WNW,287,3.0,-999.0,32,-99.99,,,0.00,weatherlink.com 1.10,2013-01-21 20:50:00,
2013-01-21 16:05:00,54.2,24.0,30.02,SW,231,5.0,-999.0,31,-99.99,,,0.00,weatherlink.com 1.10,2013-01-21 21:05:00,
2013-01-21 16:20:00,53.4,21.0,30.03,WSW,257,5.0,-999.0,28,-99.99,,,0.00,weatherlink.com 1.10,2013-01-21 21:20:00,
2013-01-21 16:35:00,52.9,20.0,30.03,North,2,4.0,-999.0,28,-99.99,,,0.00,weatherlink.com 1.10,2013-01-21 21:35:00,
2013-01-21 16:50:00,52.3,21.0,30.04,NW,307,8.0,-999.0,29,-99.99,,,0.00,weatherlink.com 1.10,2013-01-21 21:50:00,
2013-01-21 17:05:00,51.8,19.0,30.04,NW,323,14.0,-999.0,28,-99.99,,,0.00,weatherlink.com 1.10,2013-01-21 22:05:00,
2013-01-21 17:21:00,51.0,20.0,30.04,NNW,340,3.0,-999.0,29,-99.99,,,0.00,weatherlink.com 1.10,2013-01-21 22:21:00,
2013-01-21 17:36:00,50.0,16.0,30.05,WNW,300,6.0,-999.0,26,-99.99,,,0.00,weatherlink.com 1.10,2013-01-21 22:36:00,
2013-01-21 17:51:00,49.1,18.0,30.06,NNW,333,3.0,-999.0,29,-99.99,,,0.00,weatherlink.com 1.10,2013-01-21 22:51:00,
2013-01-21 18:06:00,48.0,16.0,30.07,NW,310,6.0,-999.0,28,-99.99,,,0.00,weatherlink.com 1.10,2013-01-21 23:06:00,
2013-01-21 18:21:00,47.0,15.0,30.08,NW,320,8.0,-999.0,28,-99.99,,,0.00,weatherlink.com 1.10,2013-01-21 23:21:00,
2013-01-21 18:36:00,46.3,14.0,30.08,NW,317,6.0,-999.0,27,-99.99,,,0.00,weatherlink.com 1.10,2013-01-21 23:36:00,
2013-01-21 18:51:00,45.6,14.0,30.08,NW,315,5.0,-999.0,28,-99.99,,,0.00,weatherlink.com 1.10,2013-01-21 23:51:00,
2013-01-21 19:06:00,45.0,15.0,30.08,NNW,348,3.0,-999.0,30,-99.99,,,0.00,weatherlink.com 1.10,2013-01-22 00:06:00,
2013-01-21 19:21:00,44.2,15.0,30.08,NW,324,3.0,-999.0,31,-99.99,,,0.00,weatherlink.com 1.10,2013-01-22 00:21:00,
2013-01-21 19:36:00,43.6,16.0,30.09,SW,229,1.0,-999.0,33,-99.99,,,0.00,weatherlink.com 1.10,2013-01-22 00:36:00,
2013-01-21 19:51:00,43.1,16.0,30.08,WSW,250,1.0,-999.0,34,-99.99,,,0.00,weatherlink.com 1.10,2013-01-22 00:51:00,
2013-01-21 20:06:00,42.6,16.0,30.08,WSW,257,10.0,-999.0,34,-99.99,,,0.00,weatherlink.com 1.10,2013-01-22 01:06:00,
2013-01-21 20:21:00,42.5,14.0,30.08,West,263,0.0,-999.0,32,-99.99,,,0.00,weatherlink.com 1.10,2013-01-22 01:21:00,
2013-01-21 20:36:00,42.4,14.0,30.07,WSW,253,2.0,-999.0,32,-99.99,,,0.00,weatherlink.com 1.10,2013-01-22 01:36:00,
2013-01-21 20:52:00,42.0,14.0,30.07,West,263,4.0,-999.0,32,-99.99,,,0.00,weatherlink.com 1.10,2013-01-22 01:52:00,
2013-01-21 21:07:00,41.5,13.0,30.08,SW,221,5.0,-999.0,31,-99.99,,,0.00,weatherlink.com 1.10,2013-01-22 02:07:00,
2013-01-21 21:22:00,41.3,13.0,30.09,West,261,1.0,-999.0,32,-99.99,,,0.00,weatherlink.com 1.10,2013-01-22 02:22:00,
2013-01-21 21:37:00,41.2,14.0,30.09,WNW,298,3.0,-999.0,33,-99.99,,,0.00,weatherlink.com 1.10,2013-01-22 02:37:00,
2013-01-21 21:52:00,41.2,13.0,30.09,WSW,251,0.0,-999.0,32,-99.99,,,0.00,weatherlink.com 1.10,2013-01-22 02:52:00,
2013-01-21 22:08:00,40.9,12.0,30.08,SSE,153,1.0,-999.0,31,-99.99,,,0.00,weatherlink.com 1.10,2013-01-22 03:08:00,
2013-01-21 22:22:00,40.7,13.0,30.08,West,261,2.0,-999.0,32,-99.99,,,0.00,weatherlink.com 1.10,2013-01-22 03:22:00,
2013-01-21 22:37:00,40.5,12.0,30.09,West,269,2.0,-999.0,31,-99.99,,,0.00,weatherlink.com 1.10,2013-01-22 03:37:00,
2013-01-21 22:53:00,40.3,12.0,30.09,West,261,4.0,-999.0,32,-99.99,,,0.00,weatherlink.com 1.10,2013-01-22 03:53:00,
2013-01-21 23:08:00,40.0,12.0,30.10,SW,229,1.0,-999.0,32,-99.99,,,0.00,weatherlink.com 1.10,2013-01-22 04:08:00,
2013-01-21 23:22:00,39.5,12.0,30.10,NNE,26,4.0,-999.0,32,-99.99,,,0.00,weatherlink.com 1.10,2013-01-22 04:22:00,
2013-01-21 23:37:00,39.1,10.0,30.10,North,1,4.0,-999.0,30,-99.99,,,0.00,weatherlink.com 1.10,2013-01-22 04:37:00,
2013-01-21 23:53:00,38.7,10.0,30.10,NW,319,4.0,-999.0,30,-99.99,,,0.00,weatherlink.com 1.10,2013-01-22 04:53:00,